GW3393 Weather Reports


Display with metric or nautical units.
time (UTC)temp
F
wind
direction
speed
MPH
gust
MPH
rain 1hr
in
rain 24hr
in
rain mn
in
humidity
%
barometer
mb
20260510022409 61 207 5.0 13.0 0.00 0.17 0.17 72 1012.3
20260510021908 61 237 8.0 12.0 0.00 0.17 0.17 72 1012.4
20260510021407 61 229 7.0 13.0 0.00 0.17 0.17 72 1012.4
20260510020903 61 230 7.0 12.0 0.00 0.17 0.17 72 1012.6
20260510020358 61 242 5.0 9.0 0.00 0.17 0.17 72 1012.3
20260510015853 61 235 7.0 8.0 0.00 0.17 0.17 72 1012.3
20260510015349 61 192 1.0 7.0 0.00 0.17 0.17 72 1012.1
20260510014845 61 240 5.0 7.0 0.00 0.17 0.17 71 1012.0
20260510014342 61 239 3.0 7.0 0.00 0.17 0.17 71 1012.0
20260510013838 62 219 6.0 9.0 0.00 0.17 0.17 71 1012.0
20260510013334 62 208 4.0 8.0 0.00 0.17 0.17 71 1011.7
20260510012829 62 224 8.0 10.0 0.00 0.17 0.17 70 1011.8
20260510012324 62 241 7.0 9.0 0.00 0.17 0.17 70 1011.7
20260510011819 62 225 7.0 9.0 0.00 0.17 0.17 70 1011.7
20260510011315 62 233 6.0 7.0 0.00 0.17 0.17 70 1011.8
20260510010811 62 197 3.0 8.0 0.00 0.17 0.17 69 1011.7
20260510010309 62 223 6.0 7.0 0.00 0.17 0.17 69 1011.4
20260510005805 62 231 9.0 10.0 0.00 0.17 0.17 69 1011.7
20260510005301 62 212 4.0 8.0 0.00 0.17 0.17 68 1011.5
20260510004759 63 222 6.0 12.0 0.00 0.17 0.17 67 1011.5
20260510004257 63 255 5.0 11.0 0.00 0.17 0.17 67 1011.5
20260510003754 63 239 6.0 10.0 0.00 0.17 0.17 67 1011.4
20260510003251 63 270 2.0 10.0 0.00 0.17 0.17 66 1011.3
20260510002749 63 226 7.0 8.0 0.00 0.17 0.17 67 1011.4
20260510002247 63 218 7.0 11.0 0.00 0.17 0.17 66 1011.3
20260510001743 63 224 9.0 9.0 0.00 0.17 0.17 66 1011.2
20260510001242 63 203 3.0 7.0 0.00 0.17 0.17 66 1011.1
20260510000737 64 220 7.0 8.0 0.00 0.17 0.17 65 1011.0
20260510000235 64 213 5.0 9.0 0.00 0.17 0.17 65 1011.0
20260509235732 64 244 6.0 9.0 0.00 0.17 0.17 64 1010.9
20260509235228 64 265 4.0 13.0 0.00 0.17 0.17 63 1010.9
20260509234724 65 220 5.0 8.0 0.00 0.17 0.17 63 1010.9
20260509234221 65 249 5.0 10.0 0.00 0.17 0.17 63 1010.8
20260509233720 65 221 5.0 12.0 0.00 0.17 0.17 62 1010.8
20260509233217 66 233 5.0 11.0 0.00 0.17 0.17 62 1011.0
20260509232713 66 246 5.0 15.0 0.00 0.17 0.17 61 1010.7
20260509232210 66 278 7.0 12.0 0.00 0.17 0.17 62 1010.8
20260509231706 66 222 10.0 14.0 0.00 0.17 0.17 61 1010.9
20260509231203 66 274 3.0 14.0 0.00 0.17 0.17 61 1010.8
20260509230700 66 240 11.0 17.0 0.00 0.17 0.17 60 1010.8
20260509230151 66 253 5.0 12.0 0.00 0.17 0.17 60 1010.8
20260509225647 66 251 3.0 11.0 0.00 0.17 0.17 61 1010.9
20260509225143 65 232 6.0 11.0 0.00 0.17 0.17 61 1011.0
20260509224639 66 255 4.0 13.0 0.00 0.17 0.17 61 1011.1
20260509224136 66 212 11.0 18.0 0.00 0.17 0.17 60 1011.0
20260509223633 66 271 9.0 14.0 0.00 0.17 0.17 60 1011.0
20260509223130 66 280 9.0 14.0 0.00 0.17 0.17 60 1011.1
20260509222627 66 254 7.0 14.0 0.00 0.17 0.17 59 1011.1
20260509222122 66 237 15.0 19.0 0.00 0.17 0.17 60 1011.1
20260509221619 67 247 11.0 12.0 0.00 0.17 0.17 59 1011.0
20260509221114 66 222 8.0 15.0 0.00 0.17 0.17 62 1011.2
20260509220610 67 217 4.0 16.0 0.00 0.17 0.17 60 1011.1
20260509220107 67 216 7.0 8.0 0.00 0.17 0.17 60 1011.1
20260509215602 67 262 6.0 20.0 0.00 0.17 0.17 59 1011.1
20260509215100 67 232 8.0 14.0 0.00 0.17 0.17 59 1011.2
20260509214557 67 210 5.0 13.0 0.00 0.17 0.17 61 1011.3
20260509214053 66 231 7.0 19.0 0.00 0.17 0.17 61 1011.2
20260509213549 65 239 4.0 15.0 0.00 0.17 0.17 62 1011.3
20260509213046 65 284 5.0 16.0 0.00 0.17 0.17 62 1011.2
20260509212544 66 258 9.0 20.0 0.00 0.17 0.17 61 1011.3
20260509212041 66 264 8.0 18.0 0.00 0.17 0.17 62 1011.3
20260509211536 65 249 5.0 10.0 0.00 0.17 0.17 63 1011.2
20260509211033 65 242 10.0 13.0 0.00 0.17 0.17 64 1011.2
20260509210530 65 242 9.0 18.0 0.00 0.17 0.17 63 1011.3
20260509210026 65 233 14.0 25.0 0.00 0.17 0.17 62 1011.1
20260509205525 65 204 10.0 13.0 0.00 0.17 0.17 63 1011.1
20260509205021 66 218 6.0 17.0 0.00 0.17 0.17 64 1011.1
20260509204518 66 257 6.0 9.0 0.00 0.17 0.17 63 1011.2
20260509204014 66 223 8.0 16.0 0.00 0.17 0.17 64 1011.2
20260509203510 65 239 4.0 11.0 0.00 0.17 0.17 66 1011.2
20260509203009 65 229 5.0 11.0 0.00 0.17 0.17 67 1011.3
20260509202509 65 242 8.0 15.0 0.00 0.17 0.17 67 1011.2
20260509202004 65 288 7.0 11.0 0.00 0.17 0.17 69 1011.4
20260509201459 65 199 5.0 13.0 0.00 0.17 0.17 68 1011.3
20260509200957 64 209 10.0 15.0 0.00 0.17 0.17 67 1011.5
20260509200452 65 220 10.0 11.0 0.00 0.17 0.17 68 1011.5
20260509195948 65 227 15.0 17.0 0.00 0.17 0.17 67 1011.8
20260509195444 66 242 7.0 12.0 0.00 0.17 0.17 67 1011.8
20260509194944 64 228 9.0 12.0 0.00 0.17 0.17 69 1011.7
20260509194439 64 243 4.0 9.0 0.00 0.17 0.17 70 1011.7
20260509193937 63 232 4.0 14.0 0.00 0.17 0.17 70 1011.9
20260509193436 64 264 8.0 11.0 0.00 0.17 0.17 69 1011.8
20260509192932 64 241 4.0 17.0 0.00 0.17 0.17 70 1011.7
20260509192429 65 239 6.0 14.0 0.00 0.17 0.17 69 1011.8
20260509191924 64 263 3.0 11.0 0.00 0.17 0.17 71 1011.9
20260509191420 63 248 8.0 14.0 0.00 0.17 0.17 71 1011.8
20260509190916 64 272 6.0 9.0 0.00 0.17 0.17 72 1011.8
20260509190414 63 252 4.0 13.0 0.00 0.17 0.17 72 1011.8
20260509185911 63 232 9.0 13.0 0.00 0.17 0.17 74 1011.9
20260509185408 64 247 5.0 15.0 0.00 0.17 0.17 74 1011.8
20260509184905 63 214 8.0 10.0 0.00 0.17 0.17 76 1011.8
20260509184401 62 220 2.0 7.0 0.00 0.17 0.17 76 1011.8
20260509183859 63 243 4.0 5.0 0.00 0.17 0.17 77 1011.9
20260509183353 61 205 5.0 7.0 0.00 0.17 0.17 78 1011.9
20260509182849 61 247 3.0 6.0 0.00 0.17 0.17 81 1011.9
20260509182347 60 204 2.0 6.0 0.00 0.17 0.17 81 1011.8
20260509181844 59 196 3.0 6.0 0.00 0.17 0.17 83 1011.7
20260509181341 59 262 5.0 8.0 0.00 0.17 0.17 84 1011.9
20260509180838 59 210 6.0 9.0 0.00 0.17 0.17 84 1011.9
20260509180334 59 223 5.0 7.0 0.00 0.17 0.17 86 1011.9
20260509175831 58 205 5.0 8.0 0.00 0.17 0.17 86 1011.9
20260509175327 58 205 4.0 11.0 0.00 0.17 0.17 87 1011.9
20260509174823 58 200 3.0 8.0 0.00 0.17 0.17 87 1011.9
20260509174319 58 210 3.0 9.0 0.00 0.17 0.17 87 1011.7
20260509173815 58 209 7.0 7.0 0.00 0.17 0.17 87 1011.9
20260509173311 57 222 5.0 7.0 0.00 0.17 0.17 87 1012.0
20260509172807 57 213 4.0 8.0 0.00 0.17 0.17 87 1012.1
20260509172306 57 189 3.0 6.0 0.00 0.17 0.17 89 1012.1
20260509171800 57 199 4.0 10.0 0.00 0.17 0.17 89 1012.0
20260509171256 56 221 6.0 8.0 0.00 0.17 0.17 90 1012.2
20260509170753 56 214 3.0 6.0 0.00 0.17 0.17 91 1012.4
20260509170249 56 207 3.0 6.0 0.00 0.17 0.17 90 1012.2
20260509165748 56 211 3.0 6.0 0.00 0.17 0.17 91 1012.3
20260509165243 56 217 4.0 5.0 0.00 0.17 0.17 91 1012.2
20260509164739 56 264 3.0 6.0 0.00 0.17 0.17 91 1012.2
20260509164235 57 223 4.0 5.0 0.00 0.17 0.17 90 1011.9
20260509163732 57 198 3.0 6.0 0.00 0.17 0.17 90 1012.0
20260509163229 56 222 7.0 9.0 0.00 0.17 0.17 89 1012.0
20260509162727 56 212 4.0 7.0 0.00 0.17 0.17 90 1012.1
20260509162221 55 228 5.0 5.0 0.00 0.17 0.17 91 1012.2
20260509161717 55 201 3.0 7.0 0.00 0.17 0.17 91 1012.1
20260509161214 55 151 3.0 3.0 0.00 0.17 0.17 92 1012.1
20260509160709 55 208 0.0 4.0 0.00 0.17 0.17 92 1012.1
20260509160205 55 197 3.0 6.0 0.00 0.17 0.17 92 1012.2
20260509155701 55 154 3.0 5.0 0.00 0.17 0.17 92 1012.3
20260509155157 54 195 2.0 6.0 0.00 0.17 0.17 92 1012.6
20260509154653 54 173 0.0 6.0 0.00 0.17 0.17 92 1012.6
20260509154151 55 197 3.0 4.0 0.00 0.17 0.17 92 1012.6
20260509153647 55 203 4.0 5.0 0.00 0.17 0.17 92 1012.6
20260509153144 55 206 2.0 5.0 0.00 0.17 0.17 92 1012.6
20260509152639 55 184 2.0 6.0 0.02 0.17 0.17 93 1012.4
20260509152137 55 212 2.0 4.0 0.02 0.17 0.17 93 1012.7
20260509151634 54 154 3.0 3.0 0.00 0.17 0.17 93 1012.6
20260509151131 54 176 2.0 2.0 0.00 0.17 0.17 93 1012.8
20260509150629 54 194 2.0 2.0 0.00 0.17 0.17 93 1012.8
20260509150127 54 180 1.0 2.0 0.00 0.17 0.17 93 1012.8
20260509145623 53 192 1.0 5.0 0.00 0.17 0.17 94 1012.8
20260509145118 53 206 2.0 3.0 0.00 0.17 0.17 94 1012.9
20260509144615 53 161 0.0 2.0 0.00 0.17 0.17 94 1012.9
20260509144112 53 166 1.0 1.0 0.00 0.17 0.17 95 1012.9
20260509143609 53 198 1.0 3.0 0.00 0.17 0.17 95 1013.1
20260509143107 53 205 3.0 3.0 0.00 0.17 0.17 95 1012.9
20260509142602 53 192 1.0 2.0 0.00 0.17 0.17 95 1012.9
20260509142058 53 203 1.0 2.0 0.00 0.17 0.17 96 1012.7
20260509141554 53 197 2.0 3.0 0.00 0.17 0.17 96 1012.8
20260509141051 53 195 2.0 2.0 0.02 0.17 0.17 96 1012.6
20260509140548 52 192 2.0 2.0 0.02 0.17 0.17 96 1012.9
20260509140046 52 209 2.0 2.0 0.00 0.17 0.17 96 1012.9
20260509135543 52 212 1.0 4.0 0.05 0.17 0.17 95 1013.0
20260509135041 52 201 2.0 3.0 0.05 0.16 0.16 96 1012.9
20260509134537 52 213 2.0 3.0 0.05 0.16 0.16 96 1013.1
20260509134035 52 212 2.0 4.0 0.05 0.15 0.15 96 1012.9
20260509133532 52 210 3.0 5.0 0.05 0.15 0.15 96 1012.8
20260509133029 52 162 0.0 5.0 0.02 0.15 0.15 96 1012.9
20260509132528 52 204 2.0 4.0 0.00 0.14 0.14 96 1012.8
20260509132026 52 198 3.0 4.0 0.00 0.14 0.14 97 1012.9
20260509131521 52 205 4.0 5.0 0.00 0.14 0.14 97 1013.1
20260509131018 52 209 1.0 5.0 0.00 0.14 0.14 97 1013.0
20260509130514 51 194 0.0 3.0 0.02 0.14 0.14 97 1012.8
20260509130011 51 221 2.0 3.0 0.02 0.14 0.14 97 1013.0
20260509125507 51 174 1.0 3.0 0.02 0.14 0.14 97 1013.0
20260509125003 51 198 3.0 4.0 0.05 0.14 0.14 96 1013.2
20260509124501 51 198 1.0 3.0 0.05 0.13 0.13 97 1013.3
20260509123958 51 206 3.0 5.0 0.05 0.13 0.13 96 1013.4
20260509123455 51 207 3.0 5.0 0.07 0.13 0.13 96 1013.3
20260509122951 51 219 4.0 5.0 0.02 0.12 0.12 96 1013.4
20260509122448 51 278 1.0 3.0 0.02 0.11 0.11 96 1013.3
20260509121945 51 218 3.0 3.0 0.05 0.11 0.11 96 1013.2
20260509121442 51 168 2.0 3.0 0.02 0.11 0.11 96 1013.4
20260509120940 51 216 5.0 5.0 0.02 0.11 0.11 96 1013.4
20260509120438 51 199 2.0 3.0 0.05 0.10 0.10 95 1013.3
20260509115935 51 201 3.0 3.0 0.02 0.10 0.10 95 1013.4
20260509115432 51 190 2.0 3.0 0.02 0.09 0.09 95 1013.4
20260509114929 51 245 5.0 7.0 0.02 0.09 0.09 95 1013.4
20260509114428 50 249 3.0 5.0 0.00 0.09 0.09 96 1013.4
20260509113927 51 294 1.0 2.0 0.05 0.09 0.09 96 1013.1
20260509113424 51 194 1.0 2.0 0.05 0.09 0.09 96 1013.2
20260509112921 51 213 2.0 2.0 0.02 0.08 0.08 96 1013.1
20260509112418 51 160 0.0 2.0 0.02 0.08 0.08 96 1013.3
20260509111915 51 139 2.0 3.0 0.00 0.08 0.08 96 1013.0
20260509111412 51 180 1.0 3.0 0.00 0.08 0.08 96 1013.2
20260509110910 51 165 0.0 2.0 0.02 0.08 0.08 95 1012.9
20260509110405 51 117 1.0 2.0 0.02 0.08 0.08 95 1012.9
20260509105904 51 71 2.0 2.0 0.00 0.07 0.07 95 1013.0
20260509105402 50 172 0.0 0.0 0.02 0.07 0.07 95 1012.8
20260509104858 50 172 0.0 3.0 0.02 0.07 0.07 95 1012.9
20260509104355 50 186 0.0 0.0 0.00 0.07 0.07 95 1013.1
20260509103853 51 186 0.0 1.0 0.02 0.07 0.07 95 1012.8
20260509103350 50 180 1.0 2.0 0.02 0.07 0.07 94 1012.8
20260509102849 51 160 0.0 3.0 0.00 0.07 0.07 94 1012.9
20260509102345 51 161 2.0 3.0 0.00 0.07 0.07 94 1012.9
20260509101841 51 150 2.0 4.0 0.02 0.07 0.07 94 1012.8
20260509101337 51 206 3.0 4.0 0.02 0.07 0.07 93 1013.1
20260509100835 51 233 0.0 2.0 0.00 0.06 0.06 93 1013.0
20260509100332 51 184 2.0 3.0 0.02 0.06 0.06 92 1013.0
20260509095829 51 160 1.0 1.0 0.02 0.06 0.06 91 1013.1
20260509095326 51 199 0.0 0.0 0.02 0.06 0.06 90 1013.1
20260509094823 52 199 0.0 0.0 0.02 0.06 0.06 89 1013.1
20260509094320 52 199 0.0 0.0 0.02 0.06 0.06 88 1013.3
20260509093818 52 199 0.0 0.0 0.02 0.06 0.06 88 1013.3
20260509093315 52 199 0.0 0.0 0.00 0.05 0.05 88 1013.4
20260509092813 52 199 0.0 0.0 0.02 0.05 0.05 88 1013.5
20260509092311 52 199 0.0 0.0 0.05 0.05 0.05 88 1013.6
20260509091809 52 199 0.0 0.0 0.02 0.04 0.04 87 1013.4
20260509091305 52 244 4.0 4.0 0.00 0.04 0.04 86 1013.6
20260509090802 52 255 0.0 3.0 0.00 0.04 0.04 86 1013.8
20260509090259 52 198 1.0 4.0 0.05 0.04 0.04 85 1013.3
20260509085757 52 199 2.0 5.0 0.05 0.04 0.04 84 1013.6
20260509085254 53 237 4.0 5.0 0.02 0.03 0.03 84 1013.7
20260509084750 53 180 3.0 7.0 0.05 0.03 0.03 82 1013.3
20260509084247 53 237 2.0 4.0 0.12 0.03 0.03 82 1013.4
20260509083745 53 255 3.0 8.0 0.09 0.02 0.02 80 1013.3
20260509083242 54 230 5.0 8.0 0.05 0.01 0.01 77 1013.4
20260509082738 55 254 4.0 7.0 0.00 0.00 0.00 73 1013.5
20260509082235 55 219 12.0 12.0 0.00 0.00 0.00 70 1013.5
20260509081732 56 261 9.0 15.0 0.00 0.00 0.00 69 1013.5
20260509081229 56 216 13.0 18.0 0.00 0.00 0.00 67 1013.3
20260509080728 56 210 10.0 14.0 0.00 0.00 0.00 65 1013.3
20260509080225 57 243 4.0 13.0 0.00 0.00 0.00 64 1012.8
20260509075723 57 225 7.0 15.0 0.00 0.00 0.00 64 1012.8
20260509075220 57 218 5.0 10.0 0.00 0.00 0.00 62 1012.8
20260509074717 57 237 4.0 14.0 0.00 0.00 0.00 61 1012.4
20260509074214 58 244 7.0 13.0 0.00 0.00 0.00 59 1012.2
20260509073711 58 229 13.0 13.0 0.00 0.00 0.00 59 1012.1
20260509073207 59 239 6.0 12.0 0.00 0.00 0.00 56 1012.1
20260509072703 58 221 8.0 12.0 0.00 0.00 0.00 55 1012.1
20260509072200 59 223 4.0 11.0 0.00 0.00 0.00 55 1012.1
20260509071657 59 221 9.0 16.0 0.00 0.00 0.00 54 1011.9
20260509071155 58 268 5.0 20.0 0.00 0.00 0.00 54 1012.0
20260509070651 58 251 6.0 10.0 0.00 0.00 0.00 54 1012.2
20260509070148 58 146 4.0 13.0 0.00 0.00 0.00 54 1011.8
20260509065644 58 227 7.0 11.0 0.00 0.00 0.00 54 1011.9
20260509065140 58 180 2.0 6.0 0.00 0.00 0.00 55 1011.8
20260509064637 58 205 4.0 9.0 0.00 0.00 0.00 54 1011.8
20260509064135 59 144 3.0 10.0 0.00 0.00 0.00 53 1011.8
20260509063632 58 202 7.0 10.0 0.00 0.00 0.00 54 1011.8
20260509063128 58 227 3.0 8.0 0.00 0.00 0.00 56 1011.7
20260509062625 58 214 3.0 8.0 0.00 0.00 0.00 56 1012.0
20260509062122 58 238 4.0 7.0 0.00 0.00 0.00 56 1012.1
20260509061619 58 215 4.0 7.0 0.00 0.00 0.00 55 1011.9
20260509061116 58 214 4.0 8.0 0.00 0.00 0.00 55 1012.0
20260509060614 57 198 1.0 3.0 0.00 0.00 0.00 59 1012.2
20260509060110 57 191 2.0 5.0 0.00 0.00 0.00 60 1012.2
20260509055605 56 229 3.0 4.0 0.00 0.00 0.00 60 1012.1
20260509055101 55 186 3.0 3.0 0.00 0.00 0.00 64 1012.2
20260509054558 56 195 2.0 3.0 0.00 0.00 0.00 63 1012.3
20260509054056 55 180 0.0 1.0 0.00 0.00 0.00 65 1012.4
20260509053555 56 180 2.0 3.0 0.00 0.00 0.00 62 1012.7
20260509053051 56 110 2.0 2.0 0.00 0.00 0.00 61 1012.4
20260509052549 57 123 3.0 3.0 0.00 0.00 0.00 58 1012.3
20260509052047 57 99 0.0 3.0 0.00 0.00 0.00 58 1012.6
20260509051544 57 180 0.0 2.0 0.00 0.00 0.00 60 1012.7
20260509051041 57 172 2.0 3.0 0.00 0.00 0.00 60 1012.7
20260509050538 57 180 1.0 2.0 0.00 0.00 0.00 59 1012.7
20260509050034 58 123 0.0 2.0 0.00 0.00 0.00 58 1013.0
20260509045532 58 190 2.0 2.0 0.00 0.00 0.00 57 1013.0
20260509045029 57 180 0.0 2.0 0.00 0.00 0.00 58 1012.9
20260509044526 58 115 2.0 3.0 0.00 0.00 0.00 57 1013.0
20260509044024 58 197 3.0 3.0 0.00 0.00 0.00 56 1012.9
20260509043520 58 151 0.0 2.0 0.00 0.00 0.00 57 1013.2
20260509043016 58 194 1.0 3.0 0.00 0.00 0.00 56 1013.3
20260509042512 58 194 1.0 2.0 0.00 0.00 0.00 56 1013.3
20260509042008 58 106 0.0 1.0 0.00 0.00 0.00 55 1013.4
20260509041505 59 206 2.0 4.0 0.00 0.00 0.00 55 1013.2
20260509041003 59 201 2.0 3.0 0.00 0.00 0.00 55 1013.2
20260509040501 58 240 1.0 2.0 0.00 0.00 0.00 56 1013.1
20260509035957 58 209 0.0 3.0 0.00 0.00 0.00 56 1013.5
20260509035454 58 180 0.0 2.0 0.00 0.00 0.00 58 1013.4
20260509034951 58 189 2.0 3.0 0.00 0.00 0.00 56 1013.4
20260509034449 59 172 0.0 2.0 0.00 0.00 0.00 56 1013.5
20260509033945 58 54 0.0 1.0 0.00 0.00 0.00 55 1013.4
20260509033442 59 214 2.0 2.0 0.00 0.00 0.00 55 1013.6
20260509032939 59 203 1.0 1.0 0.00 0.00 0.00 54 1013.5
20260509032437 59 120 0.0 2.0 0.00 0.00 0.00 54 1013.5
20260509031934 59 188 0.0 0.0 0.00 0.00 0.00 54 1013.6
20260509031431 59 188 0.0 0.0 0.00 0.00 0.00 53 1013.5
20260509030929 60 215 0.0 2.0 0.00 0.00 0.00 52 1013.6
20260509030427 60 195 1.0 3.0 0.00 0.00 0.00 52 1013.7
20260509025923 60 279 0.0 2.0 0.00 0.00 0.00 52 1013.7
20260509025419 60 240 0.0 2.0 0.00 0.00 0.00 52 1013.7
20260509024914 60 251 2.0 2.0 0.00 0.00 0.00 51 1013.8
20260509024411 60 239 2.0 3.0 0.00 0.00 0.00 51 1013.8
20260509023908 60 232 2.0 4.0 0.00 0.00 0.00 51 1013.7
20260509023405 60 230 2.0 4.0 0.00 0.00 0.00 50 1013.7
20260509022901 61 227 3.0 5.0 0.00 0.00 0.00 51 1013.8